This is the latest recevied weather packets stored in our database for station/object DG8SF-13. If no packets are shown the sender has not sent any weather packets the latest 10 day(s).
| Time | Temp. | Humidity | Pressure | Rain* | Wind** | Luminosity | Snow |
|---|---|---|---|---|---|---|---|
| 1788032030 | 16.67° C | 75% | 1015.7 hPa | 0 mm | - | - | - |
| 1788031719 | 16.67° C | 75% | 1015.7 hPa | 0 mm | - | - | - |
| 1788031407 | 17.22° C | 75% | 1015.6 hPa | 0 mm | - | - | - |
| 1788031093 | 16.67° C | 76% | 1015.7 hPa | 0 mm | - | - | - |
| 1788030783 | 16.67° C | 76% | 1015.8 hPa | 0 mm | - | - | - |
| 1788030470 | 16.67° C | 76% | 1015.7 hPa | 0 mm | - | - | - |
| 1788030127 | 17.22° C | 76% | 1015.7 hPa | 0 mm | - | - | - |
| 1788029810 | 17.22° C | 74% | 1015.6 hPa | 0 mm | - | - | - |
| 1788029499 | 17.78° C | 74% | 1015.6 hPa | 0 mm | - | - | - |
| 1788029186 | 17.78° C | 72% | 1015.5 hPa | 0 mm | - | - | - |
| 1788028851 | 17.78° C | 73% | 1015.4 hPa | 0 mm | - | - | - |
| 1788028526 | 17.78° C | 71% | 1015.2 hPa | 0 mm | - | - | - |
| 1788028218 | 18.33° C | 69% | 1015.2 hPa | 0 mm | - | - | - |
| 1788027903 | 18.33° C | 69% | 1015.2 hPa | 0 mm | - | - | - |
| 1788027597 | 19.44° C | 66% | 1015.1 hPa | 0 mm | - | - | - |
| 1788027278 | 19.44° C | 64% | 1015.1 hPa | 0 mm | - | - | - |
| 1788026967 | 19.44° C | 64% | 1015.1 hPa | 0 mm | - | - | - |
| 1788026654 | 19.44° C | 66% | 1015.1 hPa | 0 mm | - | - | - |
| 1788026345 | 18.89° C | 65% | 1015.1 hPa | 0 mm | - | - | - |
| 1788026031 | 19.44° C | 68% | 1015.1 hPa | 0 mm | - | - | - |
| 1788025721 | 19.44° C | 66% | 1015.1 hPa | 0 mm | - | - | - |
| 1788025392 | 19.44° C | 66% | 1015 hPa | 0 mm | - | - | - |
| 1788025070 | 20° C | 66% | 1014.9 hPa | 0 mm | - | - | - |
| 1788024757 | 20° C | 66% | 1015 hPa | 0 mm | - | - | - |
| 1788024438 | 20.56° C | 63% | 1014.9 hPa | 0 mm | - | - | - |
* Rain latest hour (hover to see other rain measurements)
** Current wind speed in m/s (hover to see current wind gust speed)